GW7027 Weather Reports


time (UTC)temp
F
wind
direction
speed
knots
gust
knots
rain 1hr
in
rain 24hr
in
rain mn
in
humidity
%
barometer
mb
20260503194956 73 316 4.3 7.8 0.00 0.00 0.00 49
20260503194454 73 338 5.2 8.7 0.00 0.00 0.00 51
20260503193949 73 320 7.0 8.7 0.00 0.00 0.00 50
20260503193445 72 343 8.7 9.6 0.00 0.00 0.00 53
20260503192940 73 268 8.7 8.7 0.00 0.00 0.00 52
20260503192437 72 306 6.1 9.6 0.00 0.00 0.00 53
20260503191933 71 288 7.8 9.6 0.00 0.00 0.00 54
20260503191431 71 265 7.8 9.6 0.00 0.00 0.00 53
20260503190927 71 310 7.8 9.6 0.00 0.00 0.00 54
20260503190424 71 300 8.7 10.4 0.00 0.00 0.00 54
20260503185921 70 332 5.2 10.4 0.00 0.00 0.00 55
20260503185418 71 337 6.1 11.3 0.00 0.00 0.00 55
20260503184916 71 312 5.2 9.6 0.00 0.00 0.00 57
20260503184414 70 308 7.0 7.8 0.00 0.00 0.00 57
20260503183910 69 0 3.5 5.2 0.00 0.00 0.00 58
20260503183407 69 336 7.0 9.6 0.00 0.00 0.00 56
20260503182904 69 336 5.2 12.2 0.00 0.00 0.00 58
20260503182403 69 321 9.6 10.4 0.00 0.00 0.00 57
20260503181859 68 346 6.1 7.8 0.00 0.00 0.00 61
20260503181356 68 322 7.8 9.6 0.00 0.00 0.00 59
20260503180853 68 339 5.2 9.6 0.00 0.00 0.00 59
20260503180351 68 337 5.2 6.1 0.00 0.00 0.00 60
20260503175847 68 325 5.2 9.6 0.00 0.00 0.00 60
20260503175345 68 346 5.2 8.7 0.00 0.00 0.00 60
20260503174840 68 274 4.3 7.0 0.00 0.00 0.00 60
20260503174339 68 334 5.2 8.7 0.00 0.00 0.00 61
20260503173839 68 350 2.6 6.1 0.00 0.00 0.00 59
20260503173336 68 327 7.0 8.7 0.00 0.00 0.00 58
20260503172833 68 331 4.3 7.8 0.00 0.00 0.00 60
20260503172331 67 301 6.1 6.1 0.00 0.00 0.00 60
20260503171831 67 358 3.5 4.3 0.00 0.00 0.00 60
20260503171329 66 311 3.5 5.2 0.00 0.00 0.00 62
20260503170826 65 351 2.6 6.1 0.00 0.00 0.00 64
20260503170322 65 350 5.2 7.0 0.00 0.00 0.00 63
20260503150715 59 337 0.9 1.7 0.00 0.00 0.00 77
20260503150211 59 8 1.7 3.5 0.00 0.00 0.00 77
20260503140135 51 26 0.9 2.6 0.00 0.00 0.00 90
20260503131104 50 17 2.6 3.5 0.00 0.00 0.00 91
20260503130602 50 73 1.7 2.6 0.00 0.00 0.00 91
20260503110452 52 5 2.6 3.5 0.00 0.00 0.00 89
20260503090344 54 73 1.7 3.5 0.00 0.00 0.00 83
20260503081311 55 347 1.7 3.5 0.00 0.00 0.00 82
20260503080807 54 76 1.7 3.5 0.00 0.00 0.00 83
20260503080305 54 10 2.6 5.2 0.00 0.00 0.00 83
20260503072741 56 316 0.0 1.7 0.00 0.00 0.00 79
20260503072238 57 28 1.7 2.6 0.00 0.00 0.00 78
20260503071734 57 62 1.7 3.5 0.00 0.00 0.00 77
20260503071231 57 10 1.7 2.6 0.00 0.00 0.00 77
20260503070728 57 16 0.9 2.6 0.00 0.00 0.00 77
20260503070226 57 5 1.7 3.5 0.00 0.00 0.00 78
20260503060156 61 21 2.6 3.5 0.00 0.00 0.00 64
20260503054643 62 17 2.6 3.5 0.00 0.00 0.00 63
20260503054141 62 13 3.5 3.5 0.00 0.00 0.00 63
20260503053638 61 2 3.5 3.5 0.00 0.00 0.00 64
20260503053137 61 10 3.5 3.5 0.00 0.00 0.00 65
20260503052633 62 19 1.7 3.5 0.00 0.00 0.00 64
20260503052129 63 9 2.6 3.5 0.00 0.00 0.00 62
20260503051625 63 356 1.7 2.6 0.00 0.00 0.00 60
20260503051123 63 5 1.7 2.6 0.00 0.00 0.00 59
20260503050619 63 0 1.7 1.7 0.00 0.00 0.00 59
20260503050116 63 43 1.7 2.6 0.00 0.00 0.00 59
20260503045614 64 14 1.7 1.7 0.00 0.00 0.00 58
20260503045110 64 10 1.7 2.6 0.00 0.00 0.00 58
20260503044607 64 7 1.7 1.7 0.00 0.00 0.00 57
20260503044105 64 353 1.7 1.7 0.00 0.00 0.00 56
20260503043600 64 22 1.7 1.7 0.00 0.00 0.00 56
20260503043058 64 1 1.7 2.6 0.00 0.00 0.00 56
20260503042554 65 0 2.6 2.6 0.00 0.00 0.00 56
20260503042050 65 358 1.7 2.6 0.00 0.00 0.00 56
20260503041547 65 351 1.7 3.5 0.00 0.00 0.00 56
20260503041045 65 359 1.7 2.6 0.00 0.00 0.00 55
20260503040542 65 349 1.7 2.6 0.00 0.00 0.00 55
20260503040039 66 3 2.6 2.6 0.00 0.00 0.00 54
20260503035536 66 0 1.7 3.5 0.00 0.00 0.00 53
20260503035034 66 345 2.6 3.5 0.00 0.00 0.00 52
20260503034531 66 341 3.5 4.3 0.00 0.00 0.00 52
20260503034028 66 342 2.6 4.3 0.00 0.00 0.00 52
20260503033525 67 325 1.7 2.6 0.00 0.00 0.00 52
20260503033023 67 342 2.6 4.3 0.00 0.00 0.00 51
20260503032521 67 348 1.7 4.3 0.00 0.00 0.00 51
20260503032019 68 353 2.6 3.5 0.00 0.00 0.00 50
20260503031516 68 310 1.7 3.5 0.00 0.00 0.00 50
20260503031013 68 332 1.7 3.5 0.00 0.00 0.00 50
20260503030509 68 0 2.6 5.2 0.00 0.00 0.00 49
20260503030007 69 335 2.6 5.2 0.00 0.00 0.00 48
20260503025503 69 344 2.6 4.3 0.00 0.00 0.00 47
20260503025001 70 317 5.2 5.2 0.00 0.00 0.00 47
20260503024457 71 20 4.3 4.3 0.00 0.00 0.00 46
20260503023954 71 322 4.3 4.3 0.00 0.00 0.00 46
20260503023451 72 358 2.6 5.2 0.00 0.00 0.00 45
20260503022948 71 336 1.7 4.3 0.00 0.00 0.00 46
20260503022443 72 312 5.2 6.1 0.00 0.00 0.00 45
20260503021939 72 326 5.2 7.8 0.00 0.00 0.00 45
20260503021436 73 321 3.5 5.2 0.00 0.00 0.00 44
20260503020933 72 314 3.5 5.2 0.00 0.00 0.00 44
20260503020431 73 321 6.1 7.0 0.00 0.00 0.00 46
20260503015927 73 317 4.3 5.2 0.00 0.00 0.00 46
20260503015424 72 310 6.1 7.8 0.00 0.00 0.00 46
20260503014920 73 330 5.2 7.0 0.00 0.00 0.00 46
20260503014417 73 313 4.3 5.2 0.00 0.00 0.00 47
20260503013915 73 332 7.8 7.8 0.00 0.00 0.00 47
20260503013412 73 321 4.3 7.0 0.00 0.00 0.00 48
20260503012909 72 299 3.5 6.1 0.00 0.00 0.00 49
20260503012407 72 277 6.1 9.6 0.00 0.00 0.00 48
20260503011903 72 341 3.5 8.7 0.00 0.00 0.00 49
20260503011400 72 357 7.0 8.7 0.00 0.00 0.00 49
20260503010856 72 318 8.7 11.3 0.00 0.00 0.00 48
20260503010353 72 312 7.8 10.4 0.00 0.00 0.00 48
20260503005850 72 328 5.2 7.0 0.00 0.00 0.00 49
20260503005348 73 342 4.3 7.0 0.00 0.00 0.00 48
20260503004844 72 312 6.1 8.7 0.00 0.00 0.00 49
20260503004342 72 312 7.0 10.4 0.00 0.00 0.00 49
20260503003839 73 333 5.2 9.6 0.00 0.00 0.00 48
20260503003336 73 337 5.2 9.6 0.00 0.00 0.00 49
20260503002833 72 318 5.2 10.4 0.00 0.00 0.00 49
20260503002330 72 332 6.1 10.4 0.00 0.00 0.00 50
20260503001826 72 331 5.2 11.3 0.00 0.00 0.00 50
20260503001322 72 304 10.4 12.2 0.00 0.00 0.00 51
20260503000820 71 322 9.6 13.9 0.00 0.00 0.00 51
20260503000319 71 336 11.3 14.8 0.00 0.00 0.00 52
20260502235814 71 351 7.8 13.0 0.00 0.00 0.00 52
20260502235312 71 305 13.0 13.9 0.00 0.00 0.00 51
20260502234808 72 335 10.4 10.4 0.00 0.00 0.00 51
20260502234306 72 315 7.8 9.6 0.00 0.00 0.00 53
20260502233801 72 317 8.7 12.2 0.00 0.00 0.00 53
20260502233258 72 326 7.0 7.8 0.00 0.00 0.00 54
20260502232755 72 335 7.8 9.6 0.00 0.00 0.00 53
20260502232251 72 286 7.8 11.3 0.00 0.00 0.00 53
20260502231748 72 293 9.6 12.2 0.00 0.00 0.00 54
20260502231246 72 314 7.8 10.4 0.00 0.00 0.00 54
20260502230744 72 336 4.3 12.2 0.00 0.00 0.00 54
20260502230242 72 306 11.3 16.5 0.00 0.00 0.00 55
20260502225738 71 327 7.0 9.6 0.00 0.00 0.00 55
20260502225235 71 312 11.3 13.0 0.00 0.00 0.00 55
20260502224731 71 324 7.8 13.9 0.00 0.00 0.00 55
20260502224228 71 330 8.7 11.3 0.00 0.00 0.00 55
20260502223726 71 326 9.6 11.3 0.00 0.00 0.00 56
20260502223223 71 309 6.1 9.6 0.00 0.00 0.00 57
20260502222721 71 321 9.6 11.3 0.00 0.00 0.00 55
20260502222217 70 327 7.8 11.3 0.00 0.00 0.00 56
20260502221714 71 301 8.7 11.3 0.00 0.00 0.00 56
20260502221210 70 327 6.1 10.4 0.00 0.00 0.00 57
20260502220706 70 329 8.7 11.3 0.00 0.00 0.00 56
20260502220203 71 335 7.0 10.4 0.00 0.00 0.00 55
20260502215700 69 2 7.0 11.3 0.00 0.00 0.00 57
20260502215156 69 328 8.7 12.2 0.00 0.00 0.00 57
20260502214654 69 318 10.4 11.3 0.00 0.00 0.00 56
20260502214151 70 327 7.0 11.3 0.00 0.00 0.00 56
20260502213648 71 334 7.8 11.3 0.00 0.00 0.00 55
20260502213145 70 272 9.6 13.9 0.00 0.00 0.00 56
20260502212644 70 274 7.0 11.3 0.00 0.00 0.00 56
20260502212142 70 278 2.6 8.7 0.00 0.00 0.00 56
20260502211637 70 330 10.4 11.3 0.00 0.00 0.00 55
20260502211135 69 267 6.1 8.7 0.00 0.00 0.00 58
20260502210632 69 309 12.2 13.9 0.00 0.00 0.00 58
20260502210129 69 291 10.4 12.2 0.00 0.00 0.00 58
20260502205626 69 304 8.7 13.0 0.00 0.00 0.00 58
20260502205122 69 341 7.0 9.6 0.00 0.00 0.00 59
20260502204619 68 308 7.0 13.0 0.00 0.00 0.00 60
20260502204117 68 320 8.7 10.4 0.00 0.00 0.00 60
20260502203614 68 330 7.8 13.9 0.00 0.00 0.00 61
20260502203112 67 320 7.8 9.6 0.00 0.00 0.00 61
20260502202607 67 344 7.8 13.9 0.00 0.00 0.00 62
20260502202105 67 335 8.7 10.4 0.00 0.00 0.00 63
20260502201601 67 287 13.0 14.8 0.00 0.00 0.00 63
20260502201058 67 266 8.7 13.0 0.00 0.00 0.00 64
20260502200553 66 333 7.0 8.7 0.00 0.00 0.00 65
20260502200051 66 342 6.1 11.3 0.00 0.00 0.00 67
20260502195549 66 347 8.7 9.6 0.00 0.00 0.00 66
20260502195045 65 321 7.8 10.4 0.00 0.00 0.00 67